Location: Observatory
(52.1446°N, 0.4624°W)
Time: 05:02:48
(UTC+01:00)

ISS - Pass Details

Date: 20 May 2018
Orbit: 402 x 407 km, 51.6° (Epoch: 24 May)

Event Time Altitude Azimuth Distance (km) Brightness Sun altitude
Rises 03:46:34 0° 282° (WNW) 2,321 -0.3 -9.1°
Reaches altitude 10° 03:48:44 10° 274° (W) 1,459 -1.4 -8.9°
Maximum altitude 03:51:46 36° 205° (SSW) 653 -3.3 -8.6°
Drops below altitude 10° 03:54:48 10° 137° (SE) 1,453 -1.1 -8.3°
Sets 03:56:57 0° 129° (SE) 2,310 0.1 -8.1°
